Temp
-6 -6 -6 -6 -5 -6 -6 -6 -6 -6 -6 -7 -7 -7 -7 -8 -8 -8 -9 -9 -10 -10 -10 -10 -10 -10 -10 -10 -10 -10 -11 -11 -11 -12 -12 -12 -12 -12 -12 -12 -12 -11 -12 -12 -12 -12 -12 -12 -12
-6 -6 -6 -6 -6 -6 -6 -6 -6 -6 -6 -7 -7 -7 -8 -9 -9 -9 -9 -9 -9 -9 -9 -9 -10 -10 -11 -11 -11 -11 -11 -11 -11 -12 -12 -12 -12 -12 -12 -12 -12 -12 -12 -12 -12 -12 -12 -12 -12
-6 -6 -6 -6 -6 -6 -6 -6 -6 -6 -6 -6 -6 -7 -7 -7 -7 -8 -8 -9 -8 -9 -9 -10 -10 -10 -10 -11 -11 -11 -12 -12 -12 -12 -12 -12 -12 -12 -12 -12 -12 -13 -12 -12 -12 -12 -13 -13 -13
-6 -6 -6 -6 -6 -6 -6 -6 -6 -6 -6 -6 -6 -7 -7 -7 -8 -8 -9 -9 -9 -10 -10 -10 -10 -10 -10 -11 -11 -11 -11 -12 -12 -13 -12 -12 -13 -13 -12 -12 -12 -13 -13 -13 -13 -12 -12 -13 -13
-6 -6 -6 -6 -6 -6 -6 -6 -6 -6 -6 -6 -6 -6 -7 -7 -8 -9 -10 -10 -10 -10 -10 -9 -10 -10 -10 -11 -11 -11 -12 -12 -12 -12 -13 -13 -13 -13 -13 -13 -12 -13 -13 -13 -13 -13 -13 -13 -13
-6 -6 -6 -6 -6 -6 -6 -6 -6 -6 -6 -6 -7 -7 -8 -9 -9 -10 -10 -10 -10 -10 -9 -10 -10 -10 -10 -11 -11 -11 -12 -12 -12 -13 -13 -13 -13 -13 -13 -14 -13 -13 -13 -13 -13 -13 -13 -13 -13
-6 -6 -6 -6 -6 -6 -6 -6 -6 -6 -6 -6 -7 -8 -9 -9 -10 -10 -10 -10 -10 -10 -11 -11 -11 -11 -11 -11 -11 -11 -11 -12 -12 -12 -13 -13 -13 -13 -13 -13 -13 -13 -13 -12 -12 -13 -13 -13 -12
-6 -6 -6 -6 -6 -6 -6 -6 -6 -6 -7 -7 -8 -9 -9 -10 -10 -10 -10 -10 -10 -10 -11 -11 -11 -11 -11 -11 -11 -11 -11 -12 -12 -12 -13 -13 -13 -14 -14 -14 -12 -13 -13 -13 -13 -13 -13 -13 -13
-7 -6 -6 -6 -6 -6 -6 -6 -7 -7 -7 -8 -9 -9 -10 -10 -10 -10 -10 -10 -11 -11 -12 -12 -12 -12 -12 -13 -13 -13 -13 -13 -13 -13 -13 -13 -13 -14 -14 -14 -14 -13 -13 -13 -13 -13 -13 -13 -13
-7 -7 -6 -6 -6 -6 -7 -7 -7 -8 -8 -9 -10 -10 -10 -10 -10 -10 -11 -12 -12 -12 -13 -13 -12 -13 -13 -14 -14 -14 -14 -14 -14 -14 -14 -14 -13 -14 -14 -14 -14 -14 -14 -13 -13 -13 -13 -13 -12
-7 -7 -7 -7 -7 -7 -7 -7 -8 -9 -9 -10 -10 -10 -10 -11 -11 -12 -12 -12 -13 -13 -13 -13 -13 -13 -14 -14 -14 -14 -15 -15 -15 -15 -15 -15 -15 -14 -14 -15 -14 -15 -14 -14 -14 -13 -12 -13 -12
-7 -7 -7 -7 -7 -7 -7 -8 -9 -10 -10 -10 -10 -10 -11 -12 -12 -13 -13 -13 -13 -13 -14 -14 -14 -15 -15 -15 -15 -15 -15 -16 -15 -16 -16 -15 -15 -15 -15 -14 -15 -15 -15 -14 -14 -14 -13 -12 -12
-8 -7 -7 -7 -7 -8 -9 -9 -10 -10 -10 -10 -11 -11 -12 -12 -13 -13 -13 -14 -14 -14 -15 -15 -15 -15 -15 -15 -16 -16 -16 -16 -16 -16 -17 -17 -17 -16 -16 -15 -15 -15 -15 -15 -15 -15 -14 -12 -13
-8 -8 -8 -8 -8 -9 -10 -10 -11 -10 -11 -11 -12 -12 -13 -14 -14 -14 -14 -14 -15 -15 -15 -15 -15 -16 -16 -16 -16 -17 -17 -17 -18 -18 -18 -18 -18 -18 -18 -17 -16 -15 -16 -15 -15 -14 -12 -12 -12
-9 -9 -9 -9 -10 -10 -10 -11 -11 -11 -11 -12 -12 -13 -14 -14 -14 -14 -14 -15 -15 -15 -15 -16 -16 -16 -17 -17 -17 -17 -18 -18 -18 -18 -18 -19 -19 -19 -19 -19 -18 -16 -16 -16 -16 -15 -14 -13 -12
-10 -10 -11 -10 -10 -10 -10 -11 -11 -12 -12 -12 -13 -14 -14 -14 -14 -15 -15 -15 -15 -16 -16 -16 -17 -17 -17 -17 -18 -18 -18 -18 -19 -19 -19 -19 -20 -20 -20 -20 -19 -18 -17 -17 -16 -16 -14 -14 -13
-11 -11 -11 -11 -11 -11 -11 -12 -12 -12 -12 -13 -13 -14 -14 -14 -14 -15 -15 -16 -16 -16 -16 -16 -17 -17 -17 -18 -18 -18 -18 -19 -19 -20 -20 -21 -21 -21 -21 -21 -20 -20 -19 -19 -17 -16 -16 -15 -14
-12 -12 -12 -11 -12 -12 -12 -12 -12 -12 -13 -13 -14 -14 -14 -15 -15 -16 -16 -16 -16 -16 -16 -17 -17 -17 -17 -18 -18 -18 -19 -19 -19 -20 -21 -22 -22 -23 -23 -22 -21 -21 -21 -21 -19 -18 -17 -16 -15
-12 -12 -12 -12 -12 -12 -12 -12 -13 -13 -14 -14 -14 -15 -15 -16 -16 -16 -16 -16 -16 -16 -17 -17 -17 -17 -17 -18 -18 -18 -18 -19 -20 -21 -22 -23 -24 -24 -23 -23 -22 -22 -22 -23 -22 -20 -19 -17 -15
-12 -12 -12 -12 -12 -12 -13 -13 -14 -14 -14 -15 -15 -15 -16 -16 -16 -16 -16 -16 -17 -17 -17 -17 -17 -17 -18 -18 -18 -18 -19 -20 -21 -22 -24 -25 -25 -25 -24 -24 -23 -23 -23 -24 -24 -23 -22 -18 -16
-12 -12 -12 -12 -13 -13 -13 -14 -14 -14 -15 -15 -15 -16 -16 -16 -16 -16 -16 -17 -17 -17 -17 -17 -17 -18 -18 -18 -18 -19 -20 -21 -22 -23 -25 -25 -27 -28 -28 -27 -26 -26 -25 -24 -24 -23 -23 -20 -17
-13 -13 -13 -13 -13 -13 -14 -14 -14 -15 -15 -15 -16 -16 -16 -16 -16 -16 -16 -17 -17 -17 -17 -17 -17 -18 -18 -18 -18 -19 -21 -22 -23 -24 -25 -27 -29 -29 -29 -28 -27 -27 -26 -25 -24 -24 -23 -22 -19
-13 -13 -13 -13 -14 -14 -14 -14 -14 -15 -15 -16 -16 -16 -16 -16 -16 -16 -17 -17 -17 -17 -17 -17 -17 -18 -18 -18 -19 -20 -21 -22 -24 -25 -26 -28 -29 -29 -29 -28 -27 -27 -26 -25 -24 -23 -23 -22 -21
-13 -13 -13 -14 -14 -14 -14 -14 -15 -15 -15 -16 -16 -16 -16 -16 -16 -17 -17 -17 -17 -17 -17 -17 -17 -18 -18 -18 -19 -21 -22 -23 -24 -25 -26 -28 -29 -29 -28 -28 -27 -26 -26 -25 -24 -24 -23 -23 -21
-13 -13 -14 -14 -14 -14 -15 -15 -15 -16 -16 -16 -16 -16 -16 -17 -17 -17 -17 -17 -17 -17 -17 -17 -17 -18 -18 -19 -20 -21 -22 -23 -25 -26 -26 -28 -29 -28 -28 -28 -27 -26 -26 -25 -24 -24 -23 -23 -22
-14 -14 -14 -14 -14 -15 -15 -15 -16 -16 -16 -16 -16 -16 -16 -17 -17 -17 -17 -17 -17 -17 -17 -17 -18 -18 -18 -19 -20 -22 -23 -24 -25 -26 -27 -27 -28 -28 -28 -27 -27 -26 -26 -25 -24 -24 -23 -23 -22
-14 -14 -14 -14 -15 -15 -15 -16 -16 -16 -16 -16 -16 -16 -17 -17 -17 -17 -17 -17 -17 -17 -17 -18 -18 -18 -19 -19 -21 -22 -23 -24 -25 -26 -27 -27 -28 -28 -28 -27 -27 -26 -26 -25 -24 -24 -23 -22 -22
-14 -15 -15 -15 -15 -15 -16 -16 -16 -16 -16 -16 -16 -17 -17 -17 -17 -17 -17 -17 -17 -17 -17 -17 -17 -18 -19 -20 -21 -22 -23 -24 -25 -26 -27 -27 -28 -28 -28 -27 -27 -26 -26 -25 -24 -24 -23 -22 -22
-14 -15 -15 -15 -15 -16 -16 -16 -16 -16 -17 -16 -16 -16 -17 -17 -17 -17 -17 -17 -17 -17 -17 -17 -18 -18 -19 -20 -22 -22 -23 -24 -25 -26 -27 -28 -28 -28 -28 -27 -27 -26 -26 -25 -24 -23 -23 -22 -22
-15 -15 -15 -15 -16 -16 -16 -16 -16 -16 -16 -16 -16 -16 -17 -17 -17 -17 -17 -17 -17 -17 -17 -17 -18 -18 -19 -21 -22 -22 -23 -24 -25 -26 -27 -28 -28 -29 -28 -27 -27 -26 -26 -25 -24 -24 -23 -23 -22
Height
5902 5902 5902 5902 5903 5900 5898 5898 5895 5892 5889 5886 5883 5880 5877 5873 5871 5870 5864 5861 5859 5858 5855 5852 5849 5844 5842 5838 5836 5834 5832 5831 5829 5829 5828 5829 5828 5828 5829 5828 5827 5827 5826 5824 5825 5824 5824 5825 5824
5901 5900 5900 5900 5900 5898 5897 5895 5893 5891 5888 5884 5881 5877 5873 5869 5865 5862 5860 5857 5855 5852 5849 5846 5842 5838 5835 5832 5829 5827 5825 5825 5825 5823 5822 5822 5823 5822 5821 5821 5819 5818 5820 5819 5819 5820 5819 5820 5821
5899 5899 5898 5897 5895 5894 5894 5892 5890 5888 5885 5882 5878 5875 5871 5868 5864 5860 5856 5853 5850 5846 5842 5838 5835 5832 5829 5826 5823 5821 5819 5816 5816 5814 5813 5811 5811 5811 5810 5811 5811 5809 5811 5813 5813 5813 5813 5814 5815
5897 5896 5895 5893 5891 5890 5889 5886 5883 5882 5879 5876 5873 5870 5866 5862 5858 5855 5851 5846 5842 5839 5835 5831 5827 5822 5819 5817 5815 5813 5810 5808 5806 5803 5802 5803 5802 5801 5800 5801 5799 5800 5804 5806 5807 5807 5807 5808 5809
5894 5892 5891 5890 5889 5887 5884 5882 5880 5876 5873 5870 5867 5863 5859 5854 5850 5846 5842 5837 5833 5830 5826 5822 5818 5815 5811 5807 5804 5802 5800 5798 5795 5794 5792 5792 5793 5792 5791 5791 5790 5790 5793 5796 5799 5800 5800 5801 5803
5891 5890 5888 5887 5885 5883 5880 5876 5872 5869 5866 5863 5860 5856 5852 5846 5842 5838 5834 5831 5826 5822 5818 5814 5810 5807 5803 5799 5796 5792 5789 5786 5784 5783 5782 5780 5780 5781 5781 5781 5782 5781 5783 5784 5788 5792 5793 5792 5795
5886 5886 5884 5882 5880 5878 5874 5870 5867 5863 5860 5856 5852 5848 5844 5839 5834 5831 5826 5821 5818 5816 5812 5807 5802 5796 5792 5789 5785 5780 5777 5773 5770 5769 5768 5768 5767 5767 5768 5769 5770 5771 5774 5775 5775 5780 5784 5783 5785
5882 5881 5879 5877 5875 5872 5868 5865 5862 5858 5854 5851 5846 5841 5838 5834 5829 5824 5820 5816 5811 5805 5800 5795 5790 5786 5781 5777 5773 5769 5765 5763 5759 5756 5755 5754 5754 5755 5754 5757 5760 5759 5763 5766 5768 5771 5774 5775 5776
5876 5876 5874 5873 5869 5866 5862 5858 5855 5850 5847 5843 5839 5836 5832 5827 5822 5819 5814 5808 5803 5798 5793 5788 5783 5779 5774 5769 5764 5760 5756 5752 5748 5745 5742 5740 5739 5739 5741 5742 5745 5748 5750 5752 5757 5759 5763 5765 5767
5872 5870 5869 5866 5863 5859 5856 5853 5848 5845 5840 5836 5833 5828 5825 5821 5817 5812 5807 5803 5799 5794 5788 5784 5779 5774 5768 5762 5757 5753 5749 5744 5739 5734 5730 5727 5725 5723 5724 5727 5727 5732 5737 5742 5745 5748 5751 5754 5757
5867 5865 5863 5860 5857 5854 5850 5847 5843 5839 5836 5832 5829 5825 5820 5816 5811 5808 5805 5800 5796 5791 5785 5779 5773 5768 5763 5757 5751 5746 5740 5735 5729 5724 5719 5715 5711 5708 5707 5708 5711 5713 5719 5726 5733 5738 5738 5743 5749
5860 5859 5856 5853 5850 5848 5844 5840 5837 5834 5831 5829 5825 5821 5816 5812 5808 5804 5799 5795 5791 5785 5780 5775 5769 5763 5756 5750 5744 5738 5732 5725 5719 5712 5707 5703 5698 5692 5689 5689 5691 5697 5700 5708 5716 5722 5722 5719 5735
5855 5853 5851 5847 5843 5840 5837 5834 5831 5828 5826 5823 5819 5815 5812 5807 5803 5799 5795 5791 5785 5780 5775 5769 5763 5756 5750 5743 5737 5730 5723 5716 5708 5700 5693 5687 5683 5679 5674 5671 5670 5674 5681 5689 5698 5703 5707 5710 5720
5847 5846 5843 5840 5837 5835 5833 5830 5827 5824 5820 5817 5814 5811 5808 5804 5800 5796 5792 5787 5782 5776 5771 5765 5758 5750 5742 5735 5728 5720 5713 5705 5698 5690 5681 5674 5667 5662 5658 5654 5651 5652 5659 5667 5676 5683 5687 5696 5708
5840 5838 5836 5834 5832 5831 5829 5826 5823 5821 5819 5815 5811 5808 5805 5801 5797 5793 5788 5783 5778 5773 5766 5759 5751 5744 5736 5728 5720 5711 5702 5693 5684 5675 5666 5658 5651 5645 5639 5636 5633 5632 5636 5644 5653 5662 5672 5679 5683
5833 5832 5831 5829 5828 5827 5826 5823 5820 5818 5814 5811 5808 5806 5803 5799 5794 5788 5784 5780 5775 5769 5761 5753 5746 5738 5730 5722 5712 5702 5691 5681 5671 5661 5650 5641 5632 5625 5620 5617 5615 5613 5615 5620 5630 5640 5650 5662 5672
5827 5826 5826 5824 5823 5822 5820 5818 5816 5814 5810 5807 5805 5802 5798 5794 5789 5786 5782 5776 5770 5762 5754 5747 5740 5733 5724 5714 5702 5689 5678 5667 5656 5645 5633 5622 5611 5603 5598 5596 5596 5595 5595 5600 5608 5618 5629 5642 5651
5823 5823 5822 5821 5821 5819 5817 5814 5812 5809 5807 5804 5802 5798 5794 5791 5788 5784 5779 5771 5764 5757 5750 5742 5735 5726 5716 5705 5692 5679 5666 5654 5642 5629 5615 5602 5589 5581 5576 5575 5575 5576 5577 5583 5588 5598 5608 5623 5637
5819 5819 5819 5818 5817 5816 5814 5811 5809 5806 5804 5801 5799 5795 5793 5790 5786 5781 5774 5766 5759 5752 5744 5736 5728 5720 5710 5698 5685 5672 5658 5643 5626 5611 5594 5579 5566 5557 5552 5553 5555 5557 5560 5566 5574 5580 5588 5605 5620
5815 5815 5815 5814 5813 5812 5810 5808 5805 5803 5800 5798 5795 5793 5790 5787 5781 5775 5768 5761 5755 5747 5739 5730 5722 5713 5701 5689 5675 5661 5645 5629 5612 5594 5576 5558 5539 5530 5528 5530 5535 5540 5544 5553 5562 5568 5575 5589 5603
5812 5812 5811 5811 5809 5807 5804 5803 5801 5799 5796 5795 5793 5791 5787 5782 5776 5770 5764 5757 5750 5742 5733 5726 5717 5706 5694 5681 5668 5652 5636 5620 5604 5584 5563 5541 5525 5518 5514 5514 5520 5527 5532 5541 5552 5559 5564 5574 5588
5809 5809 5808 5807 5805 5804 5801 5801 5798 5796 5795 5794 5791 5787 5782 5778 5773 5766 5759 5753 5745 5737 5729 5721 5711 5701 5688 5675 5659 5643 5626 5609 5590 5571 5550 5531 5520 5514 5510 5509 5513 5520 5525 5533 5543 5551 5557 5563 5576
5807 5806 5805 5804 5802 5801 5799 5798 5795 5794 5792 5790 5786 5783 5779 5774 5768 5760 5755 5749 5742 5734 5725 5717 5707 5695 5682 5668 5652 5635 5618 5600 5583 5565 5547 5528 5520 5513 5509 5507 5510 5516 5521 5526 5535 5544 5551 5557 5566
5803 5802 5802 5801 5800 5800 5797 5797 5796 5793 5790 5787 5783 5779 5775 5769 5763 5756 5752 5745 5738 5730 5722 5712 5702 5690 5677 5661 5646 5629 5612 5596 5580 5562 5544 5528 5520 5514 5509 5507 5509 5513 5518 5522 5529 5537 5545 5551 5559
5799 5798 5797 5798 5796 5796 5794 5795 5793 5790 5787 5784 5780 5776 5770 5764 5758 5753 5748 5741 5734 5728 5719 5709 5699 5686 5673 5656 5640 5624 5608 5591 5574 5558 5542 5527 5520 5514 5510 5507 5508 5511 5514 5519 5525 5531 5539 5546 5551
5795 5795 5794 5793 5794 5794 5792 5792 5790 5786 5783 5780 5776 5770 5765 5760 5756 5751 5746 5739 5733 5725 5716 5707 5695 5682 5668 5652 5636 5620 5605 5588 5571 5555 5540 5526 5518 5513 5509 5507 5506 5508 5511 5516 5521 5527 5533 5541 5546
5792 5792 5792 5791 5790 5792 5792 5789 5786 5782 5779 5776 5771 5766 5762 5757 5753 5748 5743 5737 5730 5722 5713 5704 5692 5679 5664 5648 5632 5618 5602 5587 5570 5553 5539 5525 5516 5512 5507 5505 5504 5506 5508 5512 5517 5522 5528 5535 5541
5788 5789 5790 5789 5788 5788 5790 5787 5782 5779 5776 5772 5768 5764 5760 5756 5751 5746 5741 5736 5727 5719 5711 5701 5689 5675 5660 5644 5630 5616 5600 5584 5568 5552 5538 5525 5514 5510 5506 5503 5503 5503 5505 5509 5513 5518 5524 5530 5537
5785 5786 5786 5786 5786 5786 5786 5784 5779 5776 5773 5770 5767 5763 5758 5754 5749 5744 5740 5732 5724 5717 5708 5698 5686 5671 5657 5642 5628 5613 5598 5583 5566 5551 5537 5523 5512 5507 5504 5502 5501 5501 5502 5505 5509 5513 5518 5525 5532
5782 5782 5783 5783 5784 5782 5782 5781 5776 5772 5770 5768 5765 5761 5756 5752 5747 5743 5737 5730 5722 5715 5705 5695 5682 5669 5655 5641 5627 5611 5596 5581 5567 5552 5537 5522 5510 5504 5502 5500 5498 5498 5500 5502 5505 5509 5514 5519 5527
Wind_Speed
13 13 13 14 16 17 19 21 22 24 26 28 30 32 32 32 33 36 39 40 42 43 43 43 42 46 46 47 47 47 47 47 46 44 46 43 43 42 41 39 36 32 29 28 29 28 24 22 20
15 16 16 16 17 19 20 23 23 25 27 29 31 34 34 34 36 39 41 43 45 46 47 47 48 46 45 46 48 49 51 49 48 47 47 46 46 46 46 42 40 40 35 31 30 30 28 24 21
17 18 19 20 20 22 23 25 25 26 28 30 33 34 35 36 39 41 43 45 48 49 50 49 48 46 45 46 47 49 50 52 50 50 50 50 49 49 47 46 42 43 41 33 32 31 30 26 22
19 20 21 23 24 26 27 27 29 31 33 34 36 37 38 40 42 44 46 48 48 48 47 48 48 48 47 46 45 46 49 51 52 52 52 52 52 51 52 49 48 45 42 38 33 33 33 29 25
21 23 24 25 27 28 30 30 31 34 36 37 38 40 42 45 47 47 47 47 47 47 48 48 48 48 48 48 47 46 46 48 51 53 54 55 53 54 54 53 52 50 45 43 36 34 35 33 31
23 25 26 27 29 30 31 33 35 37 39 40 41 43 46 47 45 44 45 45 46 47 48 49 48 47 46 46 47 47 48 48 49 50 53 56 56 56 56 56 56 56 51 48 39 37 37 36 35
25 27 28 29 31 31 33 35 38 40 42 43 45 47 47 44 43 43 44 46 47 46 45 45 46 47 46 46 45 45 46 47 48 49 50 52 56 59 58 60 57 55 54 51 46 39 40 41 39
28 30 30 31 32 34 35 37 39 41 43 45 47 45 42 41 43 44 44 45 46 47 47 48 49 49 50 51 51 50 50 50 48 49 50 53 54 58 62 61 58 58 56 56 52 44 42 43 44
30 31 32 33 34 36 38 40 41 43 44 44 42 40 40 41 43 44 45 45 46 46 47 48 49 50 50 49 48 48 49 49 48 48 49 49 54 57 59 64 62 61 60 56 55 54 47 46 46
32 33 33 33 35 37 39 40 42 43 42 40 38 39 38 40 41 42 43 42 42 43 44 46 47 47 47 46 46 45 43 43 43 45 46 47 49 54 60 62 67 66 66 64 59 53 54 50 46
32 32 33 33 35 37 38 41 41 39 37 36 34 35 37 38 38 38 37 38 39 41 43 42 42 43 43 43 43 44 44 44 44 45 45 44 45 48 55 63 66 70 69 68 63 57 60 54 50
30 30 31 32 35 40 42 39 36 34 33 33 34 34 34 35 34 33 35 37 39 40 40 39 40 41 43 44 43 44 45 47 47 49 47 46 44 46 48 54 65 69 73 69 65 68 66 56 52
29 32 34 39 41 39 37 33 32 30 31 31 32 33 33 31 31 34 35 35 36 36 37 40 43 46 46 45 45 46 48 50 51 53 54 53 49 47 47 49 56 68 72 74 74 73 73 52 61
35 35 36 37 37 33 28 28 27 29 30 31 31 31 28 28 31 32 33 33 34 37 40 43 46 47 45 46 49 49 51 52 53 55 56 55 54 51 48 47 51 59 73 76 76 79 67 50 67
33 32 32 32 29 25 24 24 26 26 27 28 26 25 25 27 28 30 31 33 35 38 41 44 45 43 45 49 51 54 57 59 61 62 60 60 58 54 52 48 48 52 63 77 79 80 78 62 54
25 26 25 25 23 21 21 24 24 25 25 25 22 23 24 26 28 30 32 34 36 40 42 44 40 43 46 51 53 57 60 61 60 60 63 62 58 55 53 49 46 49 55 70 81 82 83 79 61
20 20 20 20 19 19 20 22 24 25 24 22 22 23 25 27 30 32 33 36 39 42 43 41 40 44 49 53 58 61 62 63 61 61 62 65 62 58 53 49 46 46 50 59 76 84 86 86 82
16 16 17 19 18 18 20 22 23 23 22 21 22 24 26 27 29 32 34 38 40 40 41 37 41 46 51 57 59 62 65 67 65 67 68 67 65 55 49 45 45 44 46 50 62 81 86 85 86
15 17 17 17 17 18 19 20 21 19 19 20 22 24 26 27 30 32 35 38 39 40 39 39 44 49 55 59 65 66 69 69 68 70 71 69 61 52 47 43 43 41 45 45 48 62 78 84 83
16 16 16 16 17 18 18 18 18 17 19 21 24 26 27 28 32 34 36 37 37 39 37 42 47 53 58 65 68 69 71 69 71 74 75 76 60 46 41 40 37 38 44 43 38 42 49 76 82
16 15 15 15 17 17 18 16 16 17 20 22 24 26 27 29 31 32 34 36 37 39 39 44 49 56 62 67 69 68 69 69 70 75 75 70 46 35 28 25 29 34 39 40 36 34 39 52 77
15 14 14 15 16 16 17 14 15 17 19 20 22 24 25 27 28 31 34 36 39 38 41 46 53 58 64 67 69 70 70 71 75 75 79 58 39 33 24 18 20 26 33 35 35 33 33 37 55
14 14 14 15 15 16 15 14 16 17 18 19 20 21 23 26 28 31 34 36 38 39 43 48 54 60 65 68 70 70 71 72 75 71 77 48 36 33 24 16 15 22 29 32 32 31 33 35 43
14 14 15 15 15 13 14 14 14 15 15 17 18 21 25 27 30 32 35 37 39 42 44 50 56 61 65 68 70 70 70 71 73 70 72 43 34 30 24 15 13 17 26 31 31 30 30 32 36
14 16 16 16 16 15 14 13 14 13 15 16 19 24 26 29 31 34 35 38 40 42 45 52 57 62 65 67 69 70 70 71 72 68 69 43 31 27 23 17 12 15 20 25 29 28 30 32 29
16 15 16 16 16 15 15 14 13 13 16 18 23 26 28 31 32 34 35 38 40 41 46 52 57 63 65 67 68 69 69 69 70 68 67 51 30 27 21 16 12 14 17 23 28 28 28 32 29
15 15 16 16 16 15 14 14 13 15 17 21 25 27 29 31 32 34 35 38 39 42 47 52 59 62 64 67 68 68 68 68 69 67 64 58 31 27 21 16 12 13 15 19 26 27 29 30 31
16 16 16 17 16 14 13 12 13 17 19 23 26 27 30 31 30 33 34 37 38 42 47 53 59 62 63 66 67 66 67 67 68 67 63 61 32 24 21 16 12 11 15 18 23 25 29 30 30
16 16 16 16 16 15 14 12 14 18 20 23 24 26 28 30 30 32 34 35 38 43 47 54 58 62 62 64 65 66 66 67 68 67 64 63 39 21 19 15 12 10 13 17 20 26 29 31 30
15 15 16 17 15 15 14 12 14 19 21 23 23 25 27 29 30 32 33 34 38 42 47 53 57 60 61 62 64 65 66 67 67 66 65 64 42 20 16 14 12 10 10 15 20 25 28 32 33
Wind_Direction
291 302 310 316 315 315 316 317 316 313 313 311 308 304 298 295 295 294 294 298 297 299 302 303 303 303 299 295 291 288 287 285 285 281 284 281 287 284 287 289 285 279 272 269 272 276 278 278 281
294 301 307 305 305 307 309 309 309 308 309 306 304 300 296 295 293 293 295 296 297 298 301 301 300 297 293 289 286 284 283 280 281 282 284 280 281 284 285 281 277 277 276 270 264 270 275 276 276
295 298 302 301 306 308 304 304 305 304 303 299 294 294 294 292 291 293 294 295 297 299 300 301 299 296 293 290 287 284 281 280 278 274 275 274 275 276 273 274 273 269 271 273 264 263 268 268 268
293 294 296 302 306 305 305 307 306 304 299 296 296 295 295 294 294 296 298 299 300 301 302 302 302 301 299 296 291 286 282 280 276 272 269 267 268 267 270 268 266 263 264 269 267 261 261 261 259
290 293 296 300 302 301 302 301 301 300 297 297 298 298 297 298 301 302 303 304 304 305 305 303 301 300 300 298 295 291 285 279 274 271 269 268 265 266 265 265 263 262 259 262 267 264 257 260 256
291 293 296 298 299 300 301 302 301 300 301 301 299 299 300 302 304 305 305 304 305 304 303 302 302 302 299 297 295 292 289 285 281 275 269 266 264 260 261 265 263 262 259 254 254 259 260 255 255
291 292 295 297 299 300 300 300 301 302 302 301 301 301 303 305 305 306 307 307 305 304 306 307 308 307 307 305 303 299 294 287 280 274 271 267 262 260 256 257 260 262 260 255 251 246 253 257 256
291 294 295 296 298 300 301 300 299 299 297 298 300 305 306 307 308 307 307 306 308 312 315 315 315 315 313 310 306 303 300 297 293 286 275 267 263 257 258 254 253 259 260 259 257 252 247 250 256
292 293 295 299 301 300 299 299 299 298 298 300 304 306 307 308 309 306 307 311 315 318 321 320 319 317 314 313 312 311 308 305 300 294 287 278 266 259 253 255 252 248 255 246 252 249 247 244 248
292 296 298 298 298 297 297 298 297 297 301 305 306 306 306 305 305 309 314 317 319 321 320 318 316 315 314 314 313 311 308 304 301 298 295 287 278 267 255 250 251 250 247 250 255 249 245 242 242
293 295 296 294 294 296 298 296 295 297 300 300 299 300 304 307 309 312 316 320 322 319 318 318 319 318 317 317 315 312 310 309 306 301 296 293 287 277 266 252 247 248 245 246 247 245 249 243 239
294 296 293 293 295 297 294 291 296 296 296 298 302 304 307 308 310 316 323 323 321 320 321 323 324 325 327 324 322 318 316 316 313 311 307 299 290 282 272 261 249 244 245 240 242 241 247 231 238
292 293 292 291 291 289 288 294 294 296 298 303 305 307 307 311 321 325 324 322 324 328 332 334 334 333 331 329 328 326 324 321 319 317 315 310 302 290 280 270 256 244 240 241 235 242 241 227 233
288 285 281 282 283 285 291 291 295 299 304 306 306 308 314 325 324 323 324 328 329 332 334 335 335 335 333 334 335 334 331 328 326 322 318 317 308 295 285 274 263 251 239 237 237 238 236 236 230
276 272 274 276 280 283 287 286 295 298 298 298 306 315 322 322 321 325 328 329 331 332 334 336 339 335 338 341 339 336 334 331 328 325 322 318 313 299 286 279 268 257 243 235 234 234 232 229 219
265 266 267 270 276 280 283 291 294 295 298 303 310 318 322 321 325 329 328 329 331 335 338 340 339 340 341 342 340 337 334 332 328 323 319 314 308 297 286 279 270 260 249 237 232 232 232 228 223
258 259 264 271 276 283 289 292 293 297 301 307 316 321 323 326 328 327 327 330 335 338 340 340 340 341 343 342 341 337 335 332 328 321 315 312 303 295 288 276 267 264 256 240 231 230 231 229 231
253 260 265 273 280 285 287 291 296 300 305 313 320 325 326 326 326 324 328 333 339 340 339 337 340 345 344 343 341 339 335 332 327 322 317 310 307 297 284 275 266 266 259 242 235 230 229 229 230
248 254 263 267 275 280 287 293 297 305 313 322 324 322 320 321 321 324 330 337 340 340 339 342 345 345 344 344 343 338 333 332 329 325 320 320 311 301 284 276 268 266 254 242 235 234 233 226 228
250 260 265 272 278 285 290 299 305 317 323 324 321 319 315 317 320 327 334 340 340 340 339 344 346 345 346 345 340 338 336 334 332 330 329 327 319 303 283 269 257 251 242 236 233 236 236 227 225
256 264 272 276 283 290 298 307 317 327 325 322 317 312 314 318 323 330 339 342 342 341 342 347 345 347 346 343 341 339 337 336 334 333 335 336 328 320 303 276 243 236 234 230 229 231 232 230 225
260 268 272 279 286 295 301 314 327 326 320 318 313 316 321 322 329 336 342 343 344 341 344 347 347 346 345 343 343 340 340 340 339 341 343 340 334 334 321 292 240 232 226 227 225 228 222 222 222
265 268 273 279 287 295 300 314 320 322 319 319 320 325 328 331 336 341 342 343 343 341 346 348 347 346 345 344 344 343 343 343 343 345 347 342 338 334 329 303 250 227 224 226 224 226 221 220 219
266 271 278 284 288 295 303 312 316 318 318 325 328 332 333 337 342 342 342 342 342 344 347 347 346 345 346 345 346 345 345 345 345 348 351 343 340 336 331 312 262 232 222 225 223 224 221 222 214
268 275 283 289 298 306 305 315 319 323 326 331 334 337 339 342 344 343 342 340 343 344 347 348 346 346 348 346 347 347 347 347 348 351 353 346 339 339 329 318 272 244 236 227 220 220 216 221 220
269 278 286 293 297 299 306 317 321 325 327 334 338 341 344 343 344 343 340 340 342 345 348 346 345 348 350 348 349 348 348 348 349 352 355 353 341 340 335 320 284 251 241 227 222 221 211 216 217
269 275 279 284 290 295 306 314 317 323 330 337 344 345 343 343 344 342 340 341 342 346 347 345 347 350 351 349 350 349 349 350 351 354 355 356 341 341 336 325 298 260 247 232 222 224 211 213 216
268 269 275 282 289 295 302 307 319 323 334 342 345 345 343 346 345 342 339 342 344 347 345 347 350 353 353 351 350 350 351 352 353 354 355 357 344 336 336 329 311 277 251 235 229 224 217 209 215
267 264 271 282 289 290 298 308 324 323 336 343 346 344 344 348 345 341 341 344 346 347 346 349 353 355 354 353 350 351 352 354 354 354 356 357 351 335 333 328 319 296 267 242 232 227 223 214 215
255 258 267 278 283 286 299 316 321 324 333 345 345 342 345 347 343 342 344 345 347 347 348 351 355 357 356 353 351 352 353 355 355 355 357 357 354 339 334 327 324 311 280 252 240 228 226 224 216